AAL1549 KSAN-KLAX

Flight info

Callsign AAL1549
Flight time 0h 36m
Altitude 10000
Route CWARD2 SLI
Aircraft A20N/M-SDE2E3FGHIRWXY/LB1

Departure

Time 2026-05-05 03:58
Airport San Diego International Airport (KSAN)

Arrival

Time 2026-05-05 04:35
Airport Los Angeles International Airport (KLAX)
Time Latitude Longitude Altitude Speed Heading
2026-05-05 03:42 32.73289 -117.19562 24 ft 0 kts 282°
2026-05-05 03:49 32.73281 -117.19522 29 ft 5 kts 287°
2026-05-05 03:50 32.73257 -117.19501 26 ft 2 kts 32°
2026-05-05 03:53 32.73274 -117.19482 24 ft 7 kts 45°
2026-05-05 03:53 32.73328 -117.19414 27 ft 16 kts 53°
2026-05-05 03:53 32.73323 -117.19254 24 ft 25 kts 106°
2026-05-05 03:54 32.73269 -117.19033 27 ft 31 kts 105°
2026-05-05 03:54 32.73205 -117.18768 27 ft 36 kts 106°
2026-05-05 03:54 32.73132 -117.18467 24 ft 41 kts 105°
2026-05-05 03:54 32.73050 -117.18125 20 ft 44 kts 107°
2026-05-05 03:55 32.72980 -117.17839 19 ft 34 kts 105°
2026-05-05 03:55 32.72950 -117.17689 19 ft 8 kts 87°
2026-05-05 03:55 32.72953 -117.17673 20 ft 0 kts 74°
2026-05-05 03:57 32.72954 -117.17669 20 ft 2 kts 75°
2026-05-05 03:57 32.72962 -117.17638 21 ft 6 kts 72°
2026-05-05 03:57 32.73000 -117.17588 5 ft 10 kts
2026-05-05 03:57 32.73036 -117.17654 21 ft 12 kts 284°
2026-05-05 03:58 32.73080 -117.17833 20 ft 49 kts 286°
2026-05-05 03:58 32.73239 -117.18481 25 ft 111 kts 285°
2026-05-05 03:58 32.73499 -117.19539 128 ft 147 kts 286°
2026-05-05 03:58 32.73860 -117.20688 695 ft 149 kts 295°
2026-05-05 03:59 32.74424 -117.21722 1387 ft 150 kts 306°
2026-05-05 03:59 32.75076 -117.22730 1833 ft 164 kts 301°
2026-05-05 03:59 32.75732 -117.23927 2286 ft 182 kts 299°
2026-05-05 03:59 32.76436 -117.25279 2800 ft 202 kts 299°
2026-05-05 04:00 32.77212 -117.26765 3255 ft 223 kts 299°
2026-05-05 04:00 32.78081 -117.28407 3786 ft 245 kts 300°
2026-05-05 04:00 32.79019 -117.30157 4551 ft 254 kts 300°
2026-05-05 04:00 32.79992 -117.31919 5509 ft 257 kts 304°
2026-05-05 04:01 32.81094 -117.33618 6426 ft 262 kts 305°
2026-05-05 04:01 32.82218 -117.35345 7298 ft 266 kts 305°
2026-05-05 04:01 32.82974 -117.36512 7861 ft 269 kts 305°
2026-05-05 04:01 32.84120 -117.38284 8778 ft 271 kts 304°
2026-05-05 04:02 32.85280 -117.40081 9556 ft 277 kts 304°
2026-05-05 04:02 32.86458 -117.41907 9853 ft 279 kts 304°
2026-05-05 04:02 32.87640 -117.43742 9977 ft 279 kts 304°
2026-05-05 04:02 32.88825 -117.45583 10010 ft 280 kts 304°
2026-05-05 04:03 32.90025 -117.47450 10012 ft 295 kts 304°
2026-05-05 04:03 32.91315 -117.49468 10003 ft 322 kts 304°
2026-05-05 04:03 32.92683 -117.51599 10004 ft 320 kts 304°
2026-05-05 04:03 32.94011 -117.53655 10003 ft 306 kts 304°
2026-05-05 04:04 32.95274 -117.55610 9999 ft 289 kts 304°
2026-05-05 04:04 32.96466 -117.57460 9998 ft 277 kts 304°
2026-05-05 04:04 32.97669 -117.59345 10005 ft 302 kts 304°
2026-05-05 04:04 32.98998 -117.61436 9999 ft 325 kts 304°
2026-05-05 04:05 33.00076 -117.63123 9995 ft 322 kts 304°
2026-05-05 04:05 33.01404 -117.65186 9993 ft 306 kts 304°
2026-05-05 04:05 33.02665 -117.67144 9995 ft 289 kts 304°
2026-05-05 04:05 33.03855 -117.68998 9996 ft 278 kts 304°
2026-05-05 04:06 33.05076 -117.70919 9994 ft 308 kts 304°
2026-05-05 04:06 33.06487 -117.72972 9990 ft 329 kts 310°
2026-05-05 04:06 33.08189 -117.74819 9991 ft 329 kts 317°
2026-05-05 04:06 33.09925 -117.76556 9991 ft 319 kts 316°
2026-05-05 04:07 33.11580 -117.78223 9989 ft 303 kts 316°
2026-05-05 04:07 33.13140 -117.79803 9986 ft 286 kts 316°
2026-05-05 04:07 33.14648 -117.81339 9996 ft 293 kts 316°
2026-05-05 04:07 33.16282 -117.83021 9996 ft 325 kts 316°
2026-05-05 04:08 33.18050 -117.84776 9992 ft 332 kts 321°
2026-05-05 04:08 33.20028 -117.86109 9991 ft 320 kts 334°
2026-05-05 04:08 33.22109 -117.86877 9991 ft 307 kts 345°
2026-05-05 04:08 33.24150 -117.87357 9899 ft 294 kts 345°
2026-05-05 04:09 33.26124 -117.87844 9488 ft 292 kts 345°
2026-05-05 04:09 33.28106 -117.88344 9105 ft 290 kts 345°
2026-05-05 04:09 33.30074 -117.88840 8717 ft 288 kts 345°
2026-05-05 04:09 33.32028 -117.89331 8344 ft 286 kts 345°
2026-05-05 04:10 33.33962 -117.89815 7982 ft 283 kts 345°
2026-05-05 04:10 33.35886 -117.90296 7611 ft 281 kts 345°
2026-05-05 04:10 33.37795 -117.90774 7255 ft 279 kts 346°
2026-05-05 04:10 33.39658 -117.91372 6894 ft 276 kts 340°
2026-05-05 04:11 33.41483 -117.92045 6542 ft 274 kts 341°
2026-05-05 04:11 33.43307 -117.92710 6184 ft 272 kts 341°
2026-05-05 04:11 33.45117 -117.93367 5812 ft 271 kts 341°
2026-05-05 04:11 33.46915 -117.94021 5425 ft 270 kts 341°
2026-05-05 04:12 33.48705 -117.94672 5117 ft 267 kts 341°
2026-05-05 04:12 33.50477 -117.95315 5019 ft 268 kts 341°
2026-05-05 04:12 33.52263 -117.95965 5007 ft 268 kts 341°
2026-05-05 04:12 33.54042 -117.96613 5002 ft 267 kts 341°
2026-05-05 04:13 33.55799 -117.97252 5004 ft 269 kts 341°
2026-05-05 04:13 33.57589 -117.97904 5004 ft 268 kts 341°
2026-05-05 04:13 33.59395 -117.98562 5004 ft 268 kts 341°
2026-05-05 04:13 33.61160 -117.99204 5004 ft 268 kts 341°
2026-05-05 04:14 33.62943 -117.99854 5002 ft 268 kts 341°
2026-05-05 04:14 33.64726 -118.00505 5005 ft 268 kts 341°
2026-05-05 04:14 33.66510 -118.01156 5006 ft 269 kts 341°
2026-05-05 04:14 33.68307 -118.01811 4980 ft 269 kts 341°
2026-05-05 04:15 33.70092 -118.02463 4982 ft 269 kts 341°
2026-05-05 04:15 33.71886 -118.03118 4976 ft 268 kts 341°
2026-05-05 04:15 33.73675 -118.03772 4978 ft 268 kts 341°
2026-05-05 04:15 33.75460 -118.04425 4977 ft 268 kts 341°
2026-05-05 04:16 33.77247 -118.05080 4982 ft 268 kts 341°
2026-05-05 04:16 33.79031 -118.05732 4977 ft 268 kts 341°
2026-05-05 04:16 33.80799 -118.06372 4979 ft 269 kts 342°
2026-05-05 04:16 33.82681 -118.06575 4966 ft 271 kts
2026-05-05 04:17 33.84527 -118.06146 4718 ft 271 kts 10°
2026-05-05 04:17 33.86368 -118.05680 4428 ft 269 kts 10°
2026-05-05 04:17 33.88193 -118.05215 4118 ft 266 kts 10°
2026-05-05 04:17 33.89966 -118.04761 4015 ft 267 kts 11°
2026-05-05 04:18 33.91795 -118.04287 3999 ft 270 kts 11°
2026-05-05 04:18 33.93631 -118.03866 3990 ft 267 kts 359°
2026-05-05 04:18 33.95423 -118.04295 4000 ft 262 kts 332°
2026-05-05 04:18 33.96809 -118.05667 3989 ft 260 kts 303°
2026-05-05 04:19 33.97502 -118.07667 4000 ft 261 kts 282°
2026-05-05 04:19 33.97892 -118.09785 3991 ft 257 kts 281°
2026-05-05 04:19 33.97943 -118.11910 4001 ft 254 kts 258°
2026-05-05 04:19 33.97453 -118.13969 3995 ft 257 kts 251°
2026-05-05 04:20 33.96893 -118.16007 3995 ft 255 kts 251°
2026-05-05 04:20 33.96332 -118.18038 3935 ft 255 kts 251°
2026-05-05 04:20 33.95786 -118.20054 3551 ft 253 kts 253°
2026-05-05 04:20 33.95392 -118.22128 2987 ft 255 kts 260°
2026-05-05 04:21 33.95164 -118.24213 2528 ft 252 kts 264°
2026-05-05 04:21 33.94951 -118.26303 2144 ft 251 kts 263°
2026-05-05 04:21 33.94745 -118.28374 1796 ft 245 kts 263°
2026-05-05 04:21 33.94539 -118.30396 1488 ft 242 kts 264°
2026-05-05 04:22 33.94337 -118.32377 1704 ft 234 kts 263°
2026-05-05 04:22 33.94160 -118.34103 2456 ft 225 kts 263°
2026-05-05 04:22 33.93964 -118.36028 3501 ft 227 kts 263°
2026-05-05 04:22 33.93768 -118.37985 4129 ft 246 kts 263°
2026-05-05 04:23 33.93496 -118.40091 4724 ft 261 kts 261°
2026-05-05 04:23 33.93246 -118.42273 4953 ft 265 kts 261°
2026-05-05 04:23 33.92697 -118.44360 5002 ft 262 kts 238°
2026-05-05 04:23 33.91416 -118.45894 5005 ft 262 kts 210°
2026-05-05 04:24 33.89684 -118.46508 5005 ft 264 kts 182°
2026-05-05 04:24 33.87891 -118.46053 5007 ft 269 kts 154°
2026-05-05 04:24 33.86456 -118.44611 5004 ft 273 kts 127°
2026-05-05 04:25 33.85824 -118.40259 5004 ft 276 kts 82°
2026-05-05 04:25 33.86119 -118.37982 4986 ft 275 kts 81°
2026-05-05 04:25 33.86412 -118.35716 4779 ft 272 kts 81°
2026-05-05 04:25 33.86701 -118.33509 4681 ft 261 kts 81°
2026-05-05 04:26 33.86977 -118.31411 4528 ft 246 kts 81°
2026-05-05 04:26 33.87232 -118.29444 4367 ft 230 kts 81°
2026-05-05 04:26 33.87471 -118.27612 4226 ft 215 kts 81°
2026-05-05 04:26 33.87700 -118.25876 3976 ft 202 kts 81°
2026-05-05 04:27 33.87912 -118.24260 3519 ft 194 kts 81°
2026-05-05 04:27 33.88114 -118.22685 3175 ft 179 kts 81°
2026-05-05 04:27 33.88293 -118.21277 3015 ft 167 kts 81°
2026-05-05 04:27 33.88477 -118.19856 3005 ft 178 kts 81°
2026-05-05 04:28 33.88660 -118.18426 2988 ft 165 kts 81°
2026-05-05 04:28 33.88834 -118.17066 2996 ft 166 kts 81°
2026-05-05 04:28 33.89010 -118.15686 2994 ft 166 kts 81°
2026-05-05 04:28 33.89244 -118.14330 2985 ft 166 kts 63°
2026-05-05 04:29 33.90061 -118.13426 3002 ft 162 kts 16°
2026-05-05 04:29 33.91118 -118.13491 2993 ft 153 kts 329°
2026-05-05 04:29 33.91848 -118.14405 3001 ft 151 kts 302°
2026-05-05 04:29 33.92434 -118.15441 2998 ft 151 kts 301°
2026-05-05 04:30 33.93022 -118.16485 2998 ft 150 kts 301°
2026-05-05 04:30 33.93608 -118.17514 2995 ft 145 kts 301°
2026-05-05 04:30 33.94153 -118.18465 2992 ft 134 kts 301°
2026-05-05 04:30 33.94686 -118.19399 3003 ft 137 kts 301°
2026-05-05 04:31 33.95196 -118.20365 2994 ft 136 kts 291°
2026-05-05 04:31 33.95401 -118.21464 2905 ft 136 kts 271°
2026-05-05 04:31 33.95352 -118.22590 2726 ft 133 kts 262°
2026-05-05 04:31 33.95223 -118.23684 2553 ft 132 kts 262°
2026-05-05 04:32 33.95112 -118.24778 2382 ft 130 kts 263°
2026-05-05 04:32 33.95001 -118.25853 2203 ft 132 kts 263°
2026-05-05 04:32 33.94891 -118.26938 2021 ft 129 kts 263°
2026-05-05 04:32 33.94780 -118.28030 1854 ft 130 kts 263°
2026-05-05 04:33 33.94672 -118.29089 1678 ft 128 kts 263°
2026-05-05 04:33 33.94561 -118.30172 1501 ft 130 kts 263°
2026-05-05 04:33 33.94452 -118.31243 1324 ft 128 kts 264°
2026-05-05 04:33 33.94343 -118.32309 1143 ft 129 kts 263°
2026-05-05 04:34 33.94233 -118.33392 957 ft 130 kts 262°
2026-05-05 04:34 33.94124 -118.34457 771 ft 128 kts 262°
2026-05-05 04:34 33.94013 -118.35541 593 ft 132 kts 261°
2026-05-05 04:34 33.93903 -118.36623 419 ft 128 kts 262°
2026-05-05 04:35 33.93794 -118.37693 263 ft 128 kts 261°
2026-05-05 04:35 33.93690 -118.38734 127 ft 123 kts 262°
2026-05-05 04:35 33.93625 -118.39368 125 ft 43 kts 262°
2026-05-05 04:35 33.93601 -118.39634 125 ft 20 kts 268°
2026-05-05 04:36 33.93613 -118.39800 121 ft 19 kts 289°
2026-05-05 04:36 33.93630 -118.39886 125 ft 15 kts 262°